Aduy, Russia

6:27 AM +05 on July 26, 2017 (GMT +0500)
Aduy

Weather History for 28440 - September, 2013

Change the Weather History Date:

Friday, September 6, 2013

  Actual Average Record
Temperature  
Mean Temperature 59 °F -  
Max Temperature 68 °F - - ()
Min Temperature 50 °F - - ()
Degree Days  
Heating Degree Days 6    
Growing Degree Days 9 (Base 50)    
Moisture  
Dew Point 53 °F    
Average Humidity 83    
Maximum Humidity 100    
Minimum Humidity 56    
Precipitation  
Precipitation 0.00 in 0.07 in - ()
Sea Level Pressure  
Sea Level Pressure 30.13 in    
Wind  
Wind Speed 6 mph ()    
Max Wind Speed 13 mph    
Max Gust Speed -    
Visibility 5.4 miles    
Events Fog    
T = Trace of Precipitation, MM = Missing Value Source: Averaged Metar Reports

Daily Weather History Graph

Daily Weather History Graph

Search for Another Location

Airport or City:

Trip Planner

Search our weather history database for the weather conditions in past years. The results will help you decide how hot, cold, wet, or windy it might be!

Date:

Astronomy

Sep. 06, 2013 Rise Set
Actual Time 7:09 AM +06 8:40 PM +06
Civil Twilight 6:30 AM +06 9:19 PM +06
Nautical Twilight 5:40 AM +06 10:08 PM +06
Astronomical Twilight 4:44 AM +06 11:04 PM +06
Moon 8:16 AM +06 (9/6) 8:25 PM +06 (9/6)
Length of Visible Light 14h 49m
Length of Day
13h 30m
New Moon, 1% of the Moon is Illuminated
Sep 6
New Moon
Sep 12
First Quarter
Sep 19
Full
Sep 27
Last Quarter
Oct 5
New

Hourly Weather History & Observations

Time (+06) Temp. Dew Point Humidity Pressure Visibility Wind Dir Wind Speed Gust Speed Precip Events Conditions
12:00 AM 56 °F 53 °F 85% 30.09 in 6 mi ESE 4.5 mph - -   Clear
12:00 AM 57.2 °F 53.6 °F 88% 30.09 in - East 4.5 mph - N/A   Clear
12:30 AM 55.4 °F 51.8 °F 88% 30.09 in - East 2.2 mph - N/A   Clear
1:00 AM 55.4 °F 53.6 °F 94% 30.09 in 4.3 mi SE 4.5 mph - N/A   Mostly Cloudy
1:30 AM 53.6 °F 51.8 °F 94% 30.09 in 4.3 mi ESE 4.5 mph - N/A   Mostly Cloudy
2:00 AM 53.6 °F 51.8 °F 94% 30.09 in 4.3 mi ESE 4.5 mph - N/A   Mostly Cloudy
2:30 AM 53.6 °F 51.8 °F 94% 30.09 in 4.3 mi ESE 4.5 mph - N/A   Mostly Cloudy
3:00 AM 54 °F 52 °F 89% 30.11 in 2 mi ESE 4.5 mph - -   Mist
3:00 AM 51.8 °F 50.0 °F 94% 30.09 in 3.1 mi ENE 4.5 mph - N/A   Mostly Cloudy
3:30 AM 51.8 °F 51.8 °F 100% 30.09 in - East 6.7 mph - N/A   Mostly Cloudy
4:00 AM 51.8 °F 50.0 °F 94% 30.12 in - East 6.7 mph - N/A Fog Mostly Cloudy
4:30 AM 51.8 °F 50.0 °F 94% 30.09 in - East 4.5 mph - N/A Fog Mostly Cloudy
5:00 AM 51.8 °F 50.0 °F 94% 30.09 in - East 4.5 mph - N/A Fog Mostly Cloudy
5:30 AM 51.8 °F 51.8 °F 100% 30.12 in - ESE 4.5 mph - N/A Fog Mostly Cloudy
6:00 AM 53 °F 51 °F 89% 30.12 in 2 mi ESE 4.5 mph - -   Mist
6:00 AM 51.8 °F 51.8 °F 100% 30.12 in - East 4.5 mph - N/A Fog Mostly Cloudy
6:30 AM 51.8 °F 51.8 °F 100% 30.12 in - ESE 4.5 mph - N/A   Mostly Cloudy
7:00 AM 51.8 °F 51.8 °F 100% 30.12 in 1.8 mi ESE 4.5 mph - N/A   Mostly Cloudy
7:30 AM 50.0 °F 50.0 °F 100% 30.12 in 2.5 mi East 4.5 mph - N/A   Mostly Cloudy
8:00 AM 51.8 °F 50.0 °F 94% 30.12 in 2.8 mi ENE 4.5 mph - N/A   Mostly Cloudy
8:30 AM 51.8 °F 51.8 °F 100% 30.12 in 3.7 mi ENE 4.5 mph - N/A   Mostly Cloudy
9:00 AM 54 °F 50 °F 82% 30.14 in 2 mi East 4.5 mph - -  
9:00 AM 53.6 °F 53.6 °F 100% 30.12 in 4.3 mi East 6.7 mph - N/A   Overcast
9:30 AM 55.4 °F 53.6 °F 94% 30.12 in 4.3 mi East 4.5 mph - N/A   Mostly Cloudy
10:00 AM 57.2 °F 53.6 °F 88% 30.12 in 6.2 mi East 6.7 mph - N/A   Mostly Cloudy
10:30 AM 60.8 °F 53.6 °F 77% 30.15 in 6.2 mi East 6.7 mph - N/A   Mostly Cloudy
11:00 AM 59.0 °F 53.6 °F 82% 30.15 in 6.2 mi East 8.9 mph - N/A   Overcast
11:30 AM 60.8 °F 53.6 °F 77% 30.15 in 6.2 mi ENE 11.2 mph - N/A   Overcast
12:00 PM 61 °F 52 °F 64% 30.15 in 6 mi East 4.5 mph - -   Mostly Cloudy
12:00 PM 62.6 °F 55.4 °F 77% 30.15 in 6.2 mi ENE 11.2 mph - N/A   Overcast
12:30 PM 62.6 °F 53.6 °F 72% 30.15 in 6.2 mi East 11.2 mph - N/A   Mostly Cloudy
1:00 PM 62.6 °F 53.6 °F 72% 30.15 in 6.2 mi East 8.9 mph - N/A   Mostly Cloudy
1:30 PM 64.4 °F 55.4 °F 73% 30.15 in 6.2 mi ENE 11.2 mph - N/A   Mostly Cloudy
2:00 PM 66.2 °F 55.4 °F 68% 30.15 in 6.2 mi ENE 8.9 mph - N/A   Overcast
2:30 PM 64.4 °F 55.4 °F 73% 30.15 in 6.2 mi East 11.2 mph - N/A   Overcast
3:00 PM 64 °F 53 °F 59% 30.15 in 6 mi East 6.7 mph - -   Mostly Cloudy
3:00 PM 68.0 °F 55.4 °F 64% 30.15 in 6.2 mi East 11.2 mph - N/A   Overcast
3:30 PM 68.0 °F 55.4 °F 64% 30.15 in 6.2 mi East 13.4 mph - N/A   Mostly Cloudy
4:00 PM 66.2 °F 55.4 °F 68% 30.15 in 6.2 mi ENE 11.2 mph - N/A   Mostly Cloudy
4:30 PM 68.0 °F 55.4 °F 64% 30.15 in 6.2 mi ENE 11.2 mph - N/A   Mostly Cloudy
5:00 PM 68.0 °F 55.4 °F 64% 30.15 in 6.2 mi East 13.4 mph - N/A   Mostly Cloudy
5:30 PM 68.0 °F 55.4 °F 64% 30.15 in 6.2 mi ENE 11.2 mph - N/A   Mostly Cloudy
6:00 PM 65 °F 53 °F 56% 30.15 in 12 mi East 6.7 mph - -   Partly Cloudy
6:00 PM 68.0 °F 55.4 °F 64% 30.15 in 6.2 mi ENE 11.2 mph - N/A   Mostly Cloudy
6:30 PM 66.2 °F 55.4 °F 68% 30.15 in 6.2 mi ENE 11.2 mph - N/A   Mostly Cloudy
7:00 PM 64.4 °F 55.4 °F 73% 30.15 in 6.2 mi ENE 11.2 mph - N/A   Mostly Cloudy
7:30 PM 62.6 °F 55.4 °F 77% 30.15 in 6.2 mi NE 11.2 mph - N/A   Mostly Cloudy
8:00 PM 60.8 °F 53.6 °F 77% 30.15 in 6.2 mi NE 8.9 mph - N/A   Overcast
8:30 PM 60.8 °F 53.6 °F 77% 30.15 in 6.2 mi ENE 8.9 mph - N/A   Overcast
9:00 PM 58 °F 53 °F 78% 30.19 in 6 mi East 4.5 mph - -   Overcast
9:00 PM 59.0 °F 53.6 °F 82% 30.18 in - ENE 6.7 mph - N/A   Clear
9:30 PM 57.2 °F 55.4 °F 94% 30.18 in - ENE 8.9 mph - N/A   Clear
10:00 PM 57.2 °F 55.4 °F 94% 30.18 in 6.2 mi ENE 8.9 mph - N/A   Overcast
10:30 PM 57.2 °F 55.4 °F 94% 30.18 in 6.2 mi ENE 8.9 mph - N/A   Overcast
11:00 PM 57.2 °F 55.4 °F 94% 30.18 in 6.2 mi ENE 6.7 mph - N/A   Overcast
11:30 PM 57.2 °F 55.4 °F 94% 30.18 in 6.2 mi East 6.7 mph - N/A   Overcast